Theta_e
295 294 293 293 292 292 291 292 293 295 297 299 301 304 306 308 311 320 323 323 323 323 324 323 323 323 322 321 321 321 321 319
294 294 292 292 291 291 291 291 292 293 295 297 299 302 306 312 312 314 322 322 322 323 323 323 322 322 322 321 321 321 321 320
293 293 292 291 291 290 290 290 290 291 293 294 296 299 303 311 314 318 321 322 322 322 321 320 319 318 319 319 319 319 317 316
293 291 291 291 290 289 289 289 289 290 291 292 294 296 298 302 307 309 312 315 314 315 314 311 311 309 309 309 309 308 307 306
291 290 290 290 289 289 288 288 289 290 291 292 292 293 295 297 299 299 302 307 306 305 304 302 303 303 303 303 303 302 301 299
290 288 287 288 288 288 287 288 288 289 289 289 290 293 294 294 295 294 294 295 297 298 297 296 296 297 297 297 297 296 295 294
290 288 287 286 287 288 287 287 289 287 287 288 290 292 292 292 292 292 292 290 291 291 291 292 291 292 293 293 292 292 291 291
291 288 286 286 286 287 287 287 288 287 288 288 288 289 289 290 290 289 289 290 289 287 288 288 288 290 291 292 291 290 290 289
291 289 287 286 287 288 286 287 286 287 286 286 287 287 289 289 289 286 287 285 284 285 286 286 287 289 290 290 288 288 287 287
290 288 287 287 286 287 286 285 285 285 286 286 288 285 287 286 286 285 284 284 283 283 284 285 286 286 289 288 287 287 286 286
290 288 287 286 285 286 285 285 285 284 285 285 287 286 286 285 284 284 284 283 283 282 282 283 284 285 287 288 287 287 286 286
290 288 287 286 286 286 285 285 285 285 285 285 284 285 285 285 285 284 284 284 283 283 282 281 282 283 284 286 286 286 286 285
289 288 287 286 286 286 285 285 285 285 285 285 285 285 285 285 284 284 284 284 283 283 283 283 283 282 284 286 286 286 286 284
290 289 287 287 287 286 286 286 286 285 285 285 285 286 285 285 284 284 284 283 282 282 282 282 283 284 285 285 285 285 284 284
290 288 288 287 287 287 287 286 284 284 283 284 285 284 285 285 284 284 283 282 282 282 282 282 282 282 282 283 283 284 284 284
290 290 290 289 287 288 287 286 285 284 283 283 283 283 283 283 283 282 282 282 282 281 280 281 281 280 280 280 282 282 282 283
290 290 291 290 289 288 288 287 286 283 282 283 283 284 284 283 282 281 280 280 283 282 281 280 279 278 279 279 281 282 283 283
291 291 291 291 289 289 289 288 287 284 283 282 281 283 283 282 282 281 280 280 283 284 279 278 277 280 282 281 282 283 283 282
293 291 290 290 291 290 288 288 286 284 282 282 282 282 283 283 283 283 282 281 281 282 281 281 281 282 282 282 281 281 281 280
293 293 291 290 290 290 288 288 287 285 283 283 282 281 282 283 283 283 283 282 281 280 280 280 281 281 281 281 281 281 280 279
Wind_Speed
15 17 18 18 18 18 17 17 16 15 14 13 14 13 15 16 18 13 20 20 20 18 18 18 19 21 25 29 32 32 33 32
14 15 16 18 19 18 18 17 17 16 15 13 11 11 13 13 13 17 15 16 16 18 17 16 17 18 20 23 25 26 26 24
13 15 16 18 19 19 18 17 16 15 14 14 12 10 7 1 4 7 14 15 15 16 11 8 7 8 9 10 12 11 7 4
11 15 16 18 19 19 18 17 16 14 14 15 15 14 14 13 11 11 16 14 13 11 9 7 5 5 5 5 5 6 6 5
8 11 14 15 17 18 18 17 16 14 15 16 17 17 18 16 18 16 15 17 16 16 14 12 10 9 9 9 9 9 9 9
4 8 9 11 14 14 14 17 15 15 18 16 16 18 18 20 20 20 20 20 19 19 18 17 16 13 12 11 12 11 11 12
3 6 9 10 10 11 13 13 11 16 16 16 18 22 21 22 24 23 22 22 23 23 23 23 22 18 17 15 15 14 13 12
4 5 7 8 9 11 12 11 11 15 20 21 20 23 23 22 25 26 23 21 23 19 22 25 20 17 19 19 17 16 15 14
2 2 3 6 9 9 9 10 13 15 15 15 15 18 21 24 28 20 19 17 13 17 19 23 22 17 20 18 16 16 15 16
3 1 2 3 4 5 7 9 10 10 10 11 15 15 18 22 20 15 14 14 15 17 17 22 20 19 21 17 17 15 16 14
6 3 1 2 2 2 5 6 9 8 10 10 14 15 19 17 17 16 15 14 14 16 17 18 21 22 20 18 16 17 14 14
8 5 4 3 2 3 3 6 8 9 11 11 12 14 16 16 16 15 16 17 18 19 16 16 17 18 19 19 18 16 14 15
10 8 7 5 4 3 4 5 8 8 10 12 12 14 14 15 14 14 15 15 15 14 15 20 20 19 19 18 17 15 15 13
15 11 10 8 8 6 6 6 7 7 10 12 13 13 13 14 14 14 13 13 11 10 12 15 19 19 17 16 14 14 14 12
18 17 16 12 10 8 7 7 6 6 5 8 10 12 12 12 12 12 11 10 10 11 12 11 13 14 14 13 13 12 10 11
24 23 20 16 13 11 9 9 7 7 6 5 6 8 10 11 10 10 10 9 9 9 7 7 9 11 9 10 6 6 8 11
27 25 22 19 17 15 12 11 9 7 6 6 6 6 7 8 8 8 7 8 8 7 7 5 4 5 2 4 7 7 10 13
33 31 27 24 22 20 17 15 13 11 10 8 7 8 9 10 8 8 6 4 4 4 5 1 1 2 3 5 7 7 9 13
32 30 29 27 27 24 22 19 16 13 12 10 10 10 11 11 10 9 7 5 4 3 4 4 3 4 3 4 5 7 10 10
34 34 32 31 31 28 27 24 21 18 15 14 12 11 12 13 12 10 9 8 7 6 6 5 5 4 4 4 5 7 6 6
Wind_Direction
350 349 348 347 345 346 343 338 335 334 331 323 314 302 288 278 260 257 243 244 248 248 245 247 252 255 255 247 248 248 252 244
346 347 349 352 350 350 351 348 346 344 343 341 333 318 305 271 267 245 249 243 241 241 245 248 256 260 262 260 256 251 253 246
346 345 352 354 352 353 355 355 354 354 356 2 5 9 20 98 238 222 217 220 219 221 210 212 230 248 248 250 249 240 226 216
351 353 350 351 352 353 354 354 360 10 18 22 31 46 55 66 90 123 131 130 130 127 127 118 116 103 103 114 117 108 96 70
351 351 350 351 354 355 355 2 7 20 39 38 40 56 67 74 83 90 103 116 109 105 99 84 86 89 91 91 88 81 75 70
343 336 346 348 353 358 0 10 13 33 41 39 53 63 73 82 83 81 83 91 98 97 91 79 72 79 88 85 86 83 78 70
347 352 351 356 350 357 7 8 25 45 40 48 59 74 73 77 81 81 79 80 82 84 83 85 77 74 90 88 85 83 79 75
341 340 345 358 354 6 14 21 33 48 53 51 60 72 75 81 80 72 74 79 72 65 72 69 75 83 87 87 86 81 77 70
253 308 335 5 13 19 28 39 43 46 47 52 53 63 77 80 77 73 73 80 82 68 68 68 64 82 93 87 82 79 72 64
204 224 348 7 13 26 35 48 60 49 56 59 75 73 72 78 83 86 82 77 75 74 69 66 58 66 84 86 82 74 64 59
190 199 255 284 47 52 51 57 63 61 70 70 84 85 86 90 91 89 87 87 85 79 70 63 56 52 67 76 75 70 62 53
195 193 215 218 152 116 96 80 74 73 79 84 83 82 86 88 91 91 87 85 78 74 69 66 56 52 51 63 65 65 60 50
198 206 212 206 192 180 156 132 99 88 88 83 89 90 91 95 94 94 93 87 82 79 69 61 59 49 55 59 62 61 60 51
206 210 216 208 200 200 183 161 148 124 101 98 96 101 104 100 98 92 87 82 73 65 60 51 55 55 59 62 64 66 67 69
208 214 219 212 199 202 188 175 161 158 138 112 105 99 98 100 95 89 83 81 75 66 57 48 42 38 38 44 54 63 73 81
215 220 219 212 205 198 195 187 178 168 157 143 128 118 107 100 95 90 78 81 81 73 68 53 37 24 19 27 46 59 66 70
218 224 221 215 209 207 202 197 191 183 178 175 163 149 144 127 113 101 100 83 82 98 85 61 35 4 14 35 57 78 77 70
216 218 218 217 214 209 205 205 199 197 191 186 182 182 178 176 175 163 145 142 103 91 121 102 80 65 94 88 78 79 81 74
221 223 220 217 218 214 208 206 205 199 195 192 195 194 191 189 185 183 183 189 189 176 157 145 123 116 121 110 107 84 76 77
221 222 220 219 220 215 210 209 207 202 202 201 201 201 200 199 197 196 199 205 210 210 204 182 167 159 147 134 143 108 99 91